Weather History for Cando, ND

Change the Weather History Date:

Saturday, March 16, 2013

  Actual Average (KDVL) Record (KDVL)
Temperature  
Mean Temperature -3 °F -  
Max Temperature 8 °F 36 °F 71 °F (2012)
Min Temperature -14 °F 15 °F -11 °F (2013)
Degree Days  
Heating Degree Days 68    
Moisture  
Dew Point -9 °F    
Average Humidity 78    
Maximum Humidity 85    
Minimum Humidity 67    
Precipitation  
Precipitation 0.00 in - - ()
Sea Level Pressure  
Sea Level Pressure 30.20 in    
Wind  
Wind Speed 8 mph (NW)    
Max Wind Speed 13 mph    
Max Gust Speed -    
Visibility 9 miles    
Events      
Averages and records for this station are not official NWS values.
T = Trace of Precipitation, MM = Missing Value Source: NWS Daily Summary

Daily Weather History Graph

Daily Weather History Graph

Search for Another Location

Airport:

Trip Planner

Search our weather history database for the weather conditions in past years. The results will help you decide how hot, cold, wet, or windy it might be!

Date:

Astronomy

Mar. 16, 2013 Rise Set
Actual Time 7:47 AM CDT 7:44 PM CDT
Civil Twilight 7:16 AM CDT 8:15 PM CDT
Nautical Twilight 6:39 AM CDT 8:52 PM CDT
Astronomical Twilight 6:02 AM CDT 9:29 PM CDT
Moon 9:53 AM CDT (3/16) 12:21 AM CDT (3/16)
Length of Visible Light 12h 59m
Length of Day
11h 56m
Waxing Crescent, 23% of the Moon is Illuminated
Mar 16
Waxing Crescent
Mar 19
First Quarter
Mar 27
Full
Apr 2
Last Quarter
Apr 10
New

Hourly Weather History & Observations

Time (CDT) Temp. Windchill Dew Point Humidity Pressure Visibility Wind Dir Wind Speed Gust Speed Precip Events Conditions
12:15 AM -9.4 °F -25.6 °F -13.0 °F 84% 30.17 in 9.0 mi North 8.1 mph - N/A   Clear
12:55 AM -11.2 °F -27.8 °F -16.6 °F 77% 30.17 in 10.0 mi North 8.1 mph - N/A   Clear
1:35 AM -13.0 °F -25.1 °F -18.4 °F 77% 30.18 in 10.0 mi WNW 4.6 mph - N/A   Clear
1:55 AM -13.0 °F -28.6 °F -18.4 °F 77% 30.18 in 10.0 mi WNW 6.9 mph - N/A   Clear
2:15 AM -14.8 °F -30.8 °F -20.2 °F 77% 30.18 in 10.0 mi WNW 6.9 mph - N/A   Clear
2:35 AM -14.8 °F -30.8 °F -20.2 °F 77% 30.18 in 10.0 mi NW 6.9 mph - N/A   Partly Cloudy
2:55 AM -13.0 °F -30.0 °F -18.4 °F 77% 30.19 in 10.0 mi NW 8.1 mph - N/A   Scattered Clouds
3:15 AM -13.0 °F -30.0 °F -18.4 °F 77% 30.19 in 10.0 mi NW 8.1 mph - N/A   Mostly Cloudy
3:35 AM -11.2 °F -27.8 °F -16.6 °F 77% 30.19 in 10.0 mi NW 8.1 mph - N/A   Overcast
3:55 AM -7.6 °F -24.6 °F -13.0 °F 77% 30.19 in 10.0 mi NW 9.2 mph - N/A   Overcast
4:15 AM -5.8 °F -21.2 °F -11.2 °F 77% 30.18 in 10.0 mi NW 8.1 mph - N/A   Overcast
4:35 AM -4.0 °F -17.8 °F -9.4 °F 78% 30.18 in 9.0 mi NW 6.9 mph - N/A   Overcast
4:55 AM -4.0 °F -17.8 °F -9.4 °F 78% 30.17 in 10.0 mi NNW 6.9 mph - N/A   Overcast
5:15 AM -4.0 °F -16.3 °F -9.4 °F 78% 30.18 in 10.0 mi WNW 5.8 mph - N/A   Overcast
5:35 AM -5.8 °F -19.9 °F -11.2 °F 77% 30.18 in 10.0 mi WSW 6.9 mph - N/A   Overcast
5:55 AM -5.8 °F -21.2 °F -11.2 °F 77% 30.19 in 10.0 mi West 8.1 mph - N/A   Overcast
6:15 AM -5.8 °F -21.2 °F -9.4 °F 84% 30.18 in 8.0 mi West 8.1 mph - N/A   Overcast
6:35 AM -5.8 °F -19.9 °F -11.2 °F 77% 30.18 in 8.0 mi WSW 6.9 mph - N/A   Overcast
6:55 AM -7.6 °F -22.1 °F -11.2 °F 84% 30.18 in 7.0 mi West 6.9 mph - N/A   Overcast
7:15 AM -7.6 °F -20.6 °F -11.2 °F 84% 30.18 in 10.0 mi West 5.8 mph - N/A   Overcast
7:35 AM -7.6 °F -24.6 °F -13.0 °F 77% 30.17 in 8.0 mi West 9.2 mph - N/A   Overcast
7:55 AM -9.4 °F -25.6 °F -16.6 °F 71% 30.17 in 7.0 mi West 8.1 mph - N/A   Mostly Cloudy
8:15 AM -13.0 °F -30.0 °F -18.4 °F 77% 30.18 in 6.0 mi WSW 8.1 mph - N/A   Haze
8:35 AM -13.0 °F -30.0 °F -18.4 °F 77% 30.17 in 7.0 mi WSW 8.1 mph - N/A   Overcast
8:55 AM -11.2 °F -26.4 °F -18.4 °F 70% 30.17 in 9.0 mi WSW 6.9 mph - N/A   Overcast
9:15 AM -9.4 °F -26.8 °F -16.6 °F 71% 30.17 in 5.0 mi West 9.2 mph - N/A   Haze
9:35 AM -7.6 °F -24.6 °F -11.2 °F 84% 30.17 in 6.0 mi West 9.2 mph - N/A   Haze
9:55 AM -5.8 °F -23.4 °F -11.2 °F 77% 30.17 in 4.0 mi West 10.4 mph - N/A   Haze
10:15 AM -4.0 °F -20.2 °F -9.4 °F 78% 30.16 in 5.0 mi West 9.2 mph - N/A   Overcast
10:35 AM -2.2 °F -18.0 °F -7.6 °F 78% 30.17 in 7.0 mi West 9.2 mph - N/A   Overcast
10:55 AM -0.4 °F -16.7 °F -4.0 °F 85% 30.17 in 9.0 mi WNW 10.4 mph - N/A   Overcast
11:15 AM -0.4 °F -17.6 °F -4.0 °F 85% 30.17 in 9.0 mi WNW 11.5 mph - N/A   Overcast
11:35 AM -0.4 °F -16.7 °F -4.0 °F 85% 30.18 in 10.0 mi West 10.4 mph - N/A   Overcast
11:55 AM -0.4 °F -16.7 °F -4.0 °F 85% 30.18 in 10.0 mi West 10.4 mph - N/A   Overcast
12:15 PM -0.4 °F -17.6 °F -4.0 °F 85% 30.19 in 10.0 mi West 11.5 mph - N/A   Scattered Clouds
12:35 PM -0.4 °F -16.7 °F -4.0 °F 85% 30.19 in 10.0 mi West 10.4 mph - N/A   Clear
12:55 PM 1.4 °F -13.5 °F -2.2 °F 85% 30.20 in 10.0 mi WNW 9.2 mph - N/A   Clear
1:15 PM 1.4 °F -14.5 °F -2.2 °F 85% 30.20 in 10.0 mi WNW 10.4 mph - N/A   Scattered Clouds
1:35 PM 1.4 °F -13.5 °F -2.2 °F 85% 30.21 in 10.0 mi WNW 9.2 mph - N/A   Clear
1:55 PM 3.2 °F -10.3 °F -2.2 °F 78% 30.22 in 10.0 mi WNW 8.1 mph - N/A   Clear
2:15 PM 3.2 °F -10.3 °F -2.2 °F 78% 30.22 in 10.0 mi WNW 8.1 mph - N/A   Clear
2:35 PM 5.0 °F -8.1 °F -0.4 °F 78% 30.21 in 10.0 mi WNW 8.1 mph - N/A   Clear
2:55 PM 5.0 °F -6.9 °F -0.4 °F 78% 30.22 in 10.0 mi NW 6.9 mph - N/A   Clear
3:15 PM 6.8 °F -5.9 °F -0.4 °F 72% 30.21 in 10.0 mi NNW 8.1 mph - N/A   Clear
3:35 PM 8.6 °F -7.0 °F -0.4 °F 67% 30.21 in 10.0 mi North 12.7 mph - N/A   Clear
3:55 PM 8.6 °F -6.3 °F -0.4 °F 67% 30.21 in 10.0 mi North 11.5 mph - N/A   Clear
4:15 PM 8.6 °F -7.0 °F -0.4 °F 67% 30.20 in 10.0 mi North 12.7 mph - N/A   Clear
4:35 PM 8.6 °F -6.3 °F -0.4 °F 67% 30.20 in 10.0 mi North 11.5 mph - N/A   Clear
4:55 PM 6.8 °F -7.8 °F -0.4 °F 72% 30.20 in 10.0 mi NNW 10.4 mph - N/A   Clear
5:15 PM 6.8 °F -7.8 °F -0.4 °F 72% 30.20 in 10.0 mi North 10.4 mph - N/A   Clear
5:35 PM 6.8 °F -7.8 °F -0.4 °F 72% 30.20 in 10.0 mi North 10.4 mph - N/A   Clear
5:55 PM 5.0 °F -10.0 °F -0.4 °F 78% 30.20 in 10.0 mi North 10.4 mph - N/A   Clear
6:15 PM 5.0 °F -9.1 °F -2.2 °F 72% 30.20 in 10.0 mi North 9.2 mph - N/A   Clear
6:35 PM 3.2 °F -10.3 °F -2.2 °F 78% 30.20 in 10.0 mi North 8.1 mph - N/A   Clear
6:55 PM 5.0 °F -5.6 °F -2.2 °F 72% 30.20 in 10.0 mi North 5.8 mph - N/A   Clear
7:15 PM 1.4 °F -8.3 °F -4.0 °F 78% 30.21 in 10.0 mi North 4.6 mph - N/A   Clear
7:35 PM -0.4 °F -13.4 °F -7.6 °F 72% 30.21 in 10.0 mi North 6.9 mph - N/A   Clear
7:55 PM -2.2 °F -14.2 °F -7.6 °F 78% 30.21 in 10.0 mi ENE 5.8 mph - N/A   Clear
8:15 PM -0.4 °F -12.0 °F -4.0 °F 85% 30.22 in 10.0 mi ENE 5.8 mph - N/A   Clear
8:35 PM -4.0 °F -14.6 °F -7.6 °F 85% 30.23 in 10.0 mi NE 4.6 mph - N/A   Clear
8:55 PM -2.2 °F -12.5 °F -5.8 °F 85% 30.24 in 10.0 mi ENE 4.6 mph - N/A   Clear
9:15 PM -7.6 °F - -11.2 °F 84% 30.24 in 10.0 mi Calm Calm - N/A   Mostly Cloudy
9:35 PM -9.4 °F - -13.0 °F 84% 30.24 in 10.0 mi Calm Calm - N/A   Mostly Cloudy
9:55 PM -7.6 °F -16.5 °F -11.2 °F 84% 30.24 in 10.0 mi East 3.5 mph - N/A   Scattered Clouds
10:15 PM -9.4 °F -20.9 °F -14.8 °F 77% 30.24 in 10.0 mi East 4.6 mph - N/A   Clear
10:35 PM -9.4 °F -24.3 °F -13.0 °F 84% 30.23 in 10.0 mi East 6.9 mph - N/A   Clear
10:55 PM -4.0 °F -19.0 °F -9.4 °F 78% 30.23 in 10.0 mi East 8.1 mph - N/A   Clear
11:15 PM -11.2 °F -26.4 °F -14.8 °F 84% 30.22 in 10.0 mi East 6.9 mph - N/A   Clear
11:35 PM -9.4 °F -25.6 °F -13.0 °F 84% 30.22 in 10.0 mi ESE 8.1 mph - N/A   Clear
11:55 PM -13.0 °F -27.0 °F -18.4 °F 77% 30.21 in 10.0 mi ESE 5.8 mph - N/A   Clear